Regional Weather Roundup
Issued by NWS Kansas City/Pleasant Hill, MO

Home | Current Version | Previous Version | Text Only | Print | Product List | Glossary On
Versions: 1 2 3 4 5 6 7 8 9 10 11 12 13 14 15 16 17 18 19 20 21 22 23 24 25 26 27 28 29 30 31 32 33 34 35 36 37 38 39 40 41 42 43 44 45 46 47 48 49 50
000
ASUS43 KEAX 070110
RWREAX

WEATHER ROUNDUP FOR EASTERN KANSAS AND NORTHWEST MISSOURI
NATIONAL WEATHER SERVICE KANSAS CITY/PLEASANT HILL MO
800 PM CDT MON JUL 06 2015

KSZ040-057-103>105-MOZ028-029-037-043-070200-
...KANSAS CITY METROPOLITAN AREA...

CITY           SKY/WX    TMP DP  RH WIND       PRES   REMARKS
K.C. INTL      LGT RAIN  73  72  96 S6        29.88R
K.C. DOWNTOWN  CLOUDY    72  71  97 E7        29.86F
LEES SUMMIT    TSTM      72  69  90 S5        29.88F
OLATHE - IXD   CLOUDY    71  70  96 CALM      29.88F
OLATHE - OJC   RAIN      71  70  96 CALM      29.87S FOG
LAWRENCE       LGT RAIN  72  71  97 E3        29.87F

$$

MOZ001>008-011>017-020>025-030>033-038>040-044>046-053-054-070200-
...NORTHERN AND CENTRAL MISSOURI...

CITY           SKY/WX    TMP DP  RH WIND       PRES   REMARKS
ST. JOSEPH     LGT RAIN  72  71  97 MISG      29.88R
MOSBY          RAIN      72  72 100 CALM      29.87S
WARRENSBURG    TSTM      72  68  88 NW5       29.88R
WHITEMAN AFB   TSTM      75  71  88 NE8       29.86R
CLINTON        CLOUDY    82  75  78 S7        29.87F
SEDALIA        CLOUDY    82  73  74 S7        29.87F
WARSAW         NOT AVBL
CHILLICOTHE      N/A     73  72  96 CALM      29.90R
KIRKSVILLE     LGT RAIN  75  72  90 NW7       29.87R

$$

MOZ041-047>049-056>058-063>065-088>090-097-070200-
...EASTERN AND SOUTHERN MISSOURI...

CITY           SKY/WX    TMP DP  RH WIND       PRES   REMARKS
ST. LOUIS INTL CLOUDY    84  74  71 S8        29.90S HX  91
SPIRIT OF STL  MOCLDY    83  76  79 S7        29.89R HX  91
COLUMBIA       CLOUDY    81  74  79 S8        29.87F
JEFFERSON CITY CLOUDY    83  73  72 S6        29.86F
ROLLA          CLOUDY    79  72  79 S12       29.91F
OSAGE BEACH    CLOUDY    81  73  78 S6        29.89F
SPRINGFIELD    CLOUDY    80  74  81 S7        29.93F
BRANSON        CLOUDY    79  73  83 S12       29.98R
JOPLIN         CLOUDY    81  73  76 S9        29.92R
WEST PLAINS    PTCLDY    80  71  74 S9        29.98S

$$

IAZ060-094-KSZ022-034>040-054-083-096-NEZ052-066-093-070200-
...KANSAS...SOUTHEAST NEBRASKA AND IOWA...

CITY           SKY/WX    TMP DP  RH WIND       PRES   REMARKS
TOPEKA         LGT RAIN  73  72  96 W5        29.89R
MANHATTAN      LGT RAIN  72  71  97 N6        29.92R
EMPORIA        LGT RAIN  70  69  97 E3        29.90F
CHANUTE        TSTM      72  71  97 E8        29.90F FOG
WICHITA        CLOUDY    73  70  90 NE7       29.88R
OMAHA          CLOUDY    73  65  75 N10       29.97R HAZE
LINCOLN        CLOUDY    73  62  68 N20       29.99R HAZE
FALLS CITY     LGT RAIN  69  67  93 N15G23    29.92R FOG
LAMONI         CLOUDY    72  70  93 N8        29.90R
DES MOINES     CLOUDY    72  63  73 N17G24    29.90S HAZE

$$



USA.gov is the U.S. government's official web portal to all federal, state and local government web resources and services.